Terug naar catalogus

SL-16 DEB

ActiefLEO
NORAD 22395·DEBRIS·🇷🇺 Russia

Gelanceerd Dec 25, 1992 vanaf Baikonur Cosmodrome

Loading…

Volgende Passages (komende 24 uur)

TLE

VersSource: Space-Track

Epoch: Sep 13, 2026, 12:13 UTC

1 22395U 92093CL  26256.50944412  .00005420  00000-0  11062-2 0  9997
2 22395  71.1342 282.7960 0049906 253.1609 225.2583 14.60567275734193

Volg SL-16 DEB in realtime met AllMySat

Download on the App Store